| time (UTC) | temp C | wind direction | speed KPH | gust KPH | rain 1hr cm | rain 24hr cm | rain mn cm | humidity % | barometer mb |
| 20260510214352 | 19 | 22 | 1.6 | 1.6 | 0.00 | 0.00 | 0.00 | 73 | 1010.2 |
| 20260510213849 | 19 | 316 | 1.6 | 1.6 | 0.00 | 0.00 | 0.00 | 71 | 1010.1 |
| 20260510213344 | 19 | 306 | 1.6 | 1.6 | 0.00 | 0.00 | 0.00 | 71 | 1009.9 |
| 20260510212841 | 19 | 317 | 1.6 | 3.2 | 0.00 | 0.00 | 0.00 | 72 | 1010.1 |
| 20260510212338 | 19 | 247 | 1.6 | 3.2 | 0.00 | 0.00 | 0.00 | 70 | 1010.2 |
| 20260510211835 | 19 | 254 | 1.6 | 3.2 | 0.00 | 0.00 | 0.00 | 72 | 1009.7 |
| 20260510211331 | 19 | 207 | 1.6 | 3.2 | 0.00 | 0.00 | 0.00 | 73 | 1009.9 |
| 20260510210827 | 19 | 257 | 0.0 | 1.6 | 0.00 | 0.00 | 0.00 | 71 | 1009.7 |
| 20260510210322 | 19 | 230 | 1.6 | 3.2 | 0.00 | 0.00 | 0.00 | 72 | 1009.6 |
| 20260510205822 | 19 | 311 | 1.6 | 1.6 | 0.00 | 0.00 | 0.00 | 72 | 1009.7 |
| 20260510205317 | 19 | 263 | 1.6 | 1.6 | 0.00 | 0.00 | 0.00 | 74 | 1009.8 |
| 20260510204813 | 20 | 13 | 0.0 | 1.6 | 0.00 | 0.00 | 0.00 | 75 | 1009.8 |
| 20260510204310 | 20 | 218 | 4.8 | 4.8 | 0.00 | 0.00 | 0.00 | 73 | 1009.6 |
| 20260510203807 | 20 | 282 | 1.6 | 1.6 | 0.00 | 0.00 | 0.00 | 72 | 1009.3 |
| 20260510203305 | 20 | 179 | 1.6 | 1.6 | 0.00 | 0.00 | 0.00 | 72 | 1009.4 |
| 20260510202804 | 20 | 271 | 1.6 | 1.6 | 0.00 | 0.00 | 0.00 | 73 | 1009.4 |
| 20260510202300 | 20 | 214 | 1.6 | 3.2 | 0.00 | 0.00 | 0.00 | 74 | 1009.6 |
| 20260510201757 | 20 | 187 | 1.6 | 1.6 | 0.00 | 0.00 | 0.00 | 74 | 1009.5 |
| 20260510201254 | 20 | 336 | 0.0 | 1.6 | 0.00 | 0.00 | 0.00 | 77 | 1009.5 |
| 20260510200751 | 20 | 218 | 3.2 | 3.2 | 0.00 | 0.00 | 0.00 | 72 | 1009.6 |
| 20260510200248 | 20 | 349 | 1.6 | 1.6 | 0.00 | 0.00 | 0.00 | 75 | 1009.6 |
| 20260510195744 | 20 | 250 | 1.6 | 1.6 | 0.00 | 0.00 | 0.00 | 77 | 1009.5 |
| 20260510195241 | 20 | 262 | 4.8 | 4.8 | 0.00 | 0.00 | 0.00 | 73 | 1009.4 |
| 20260510194740 | 20 | 218 | 1.6 | 1.6 | 0.00 | 0.00 | 0.00 | 75 | 1009.6 |
| 20260510194238 | 20 | 0 | 0.0 | 1.6 | 0.00 | 0.00 | 0.00 | 77 | 1009.7 |
| 20260510193734 | 20 | 291 | 0.0 | 1.6 | 0.00 | 0.00 | 0.00 | 77 | 1009.7 |
| 20260510193228 | 20 | 108 | 0.0 | 1.6 | 0.00 | 0.00 | 0.00 | 77 | 1009.8 |
| 20260510192724 | 20 | 247 | 1.6 | 1.6 | 0.00 | 0.00 | 0.00 | 77 | 1009.6 |
| 20260510192220 | 20 | 132 | 1.6 | 1.6 | 0.00 | 0.00 | 0.00 | 78 | 1009.7 |
| 20260510191716 | 20 | 114 | 0.0 | 1.6 | 0.00 | 0.00 | 0.00 | 78 | 1009.8 |
| 20260510191213 | 20 | 71 | 0.0 | 1.6 | 0.00 | 0.00 | 0.00 | 77 | 1009.8 |
| 20260510190710 | 20 | 359 | 0.0 | 1.6 | 0.00 | 0.00 | 0.00 | 77 | 1010.1 |
| 20260510190207 | 20 | 240 | 1.6 | 1.6 | 0.00 | 0.00 | 0.00 | 79 | 1009.9 |
| 20260510185704 | 19 | 93 | 0.0 | 0.0 | 0.00 | 0.00 | 0.00 | 82 | 1010.1 |
| 20260510185202 | 18 | 229 | 0.0 | 1.6 | 0.00 | 0.00 | 0.00 | 79 | 1010.2 |
| 20260510184658 | 19 | 183 | 1.6 | 1.6 | 0.00 | 0.00 | 0.00 | 81 | 1010.2 |
| 20260510184155 | 18 | 124 | 1.6 | 1.6 | 0.00 | 0.00 | 0.00 | 81 | 1010.6 |
| 20260510183650 | 18 | 306 | 0.0 | 1.6 | 0.00 | 0.00 | 0.00 | 81 | 1010.4 |
| 20260510183145 | 18 | 249 | 1.6 | 1.6 | 0.00 | 0.00 | 0.00 | 83 | 1010.5 |
| 20260510182642 | 18 | 153 | 0.0 | 0.0 | 0.00 | 0.00 | 0.00 | 82 | 1010.3 |
| 20260510182137 | 18 | 212 | 1.6 | 1.6 | 0.00 | 0.00 | 0.00 | 80 | 1010.3 |
| 20260510181635 | 19 | 231 | 1.6 | 1.6 | 0.00 | 0.00 | 0.00 | 82 | 1010.1 |
| 20260510181131 | 18 | 26 | 0.0 | 0.0 | 0.00 | 0.00 | 0.00 | 80 | 1010.2 |
| 20260510180627 | 18 | 22 | 0.0 | 0.0 | 0.00 | 0.00 | 0.00 | 80 | 1009.8 |
| 20260510180125 | 19 | 254 | 1.6 | 1.6 | 0.00 | 0.00 | 0.00 | 79 | 1010.1 |
| 20260510175621 | 20 | 53 | 0.0 | 0.0 | 0.00 | 0.00 | 0.00 | 80 | 1009.9 |
| 20260510175116 | 20 | 71 | 0.0 | 1.6 | 0.00 | 0.00 | 0.00 | 77 | 1010.1 |
| 20260510174615 | 20 | 268 | 1.6 | 1.6 | 0.00 | 0.00 | 0.00 | 77 | 1010.1 |
| 20260510174112 | 20 | 42 | 0.0 | 1.6 | 0.00 | 0.00 | 0.00 | 76 | 1010.2 |
| 20260510173607 | 20 | 253 | 0.0 | 1.6 | 0.00 | 0.00 | 0.00 | 77 | 1010.2 |
| 20260510173104 | 21 | 296 | 4.8 | 4.8 | 0.00 | 0.00 | 0.00 | 73 | 1010.3 |
| 20260510172600 | 20 | 51 | 0.0 | 1.6 | 0.00 | 0.00 | 0.00 | 78 | 1010.2 |
| 20260510172056 | 20 | 261 | 3.2 | 3.2 | 0.00 | 0.00 | 0.00 | 77 | 1010.3 |
| 20260510171553 | 20 | 10 | 1.6 | 1.6 | 0.00 | 0.00 | 0.00 | 75 | 1010.3 |
| 20260510171050 | 20 | 212 | 1.6 | 3.2 | 0.00 | 0.00 | 0.00 | 75 | 1010.1 |
| 20260510170546 | 20 | 131 | 1.6 | 1.6 | 0.00 | 0.00 | 0.00 | 83 | 1010.2 |
| 20260510170043 | 19 | 309 | 4.8 | 4.8 | 0.00 | 0.00 | 0.00 | 79 | 1010.3 |
| 20260510165539 | 20 | 46 | 0.0 | 1.6 | 0.00 | 0.00 | 0.00 | 77 | 1010.2 |
| 20260510165035 | 19 | 72 | 0.0 | 0.0 | 0.00 | 0.00 | 0.00 | 81 | 1010.1 |
| 20260510164532 | 18 | 171 | 0.0 | 1.6 | 0.00 | 0.00 | 0.00 | 83 | 1010.4 |
| 20260510164028 | 18 | 56 | 0.0 | 1.6 | 0.00 | 0.00 | 0.00 | 82 | 1009.9 |
| 20260510163519 | 18 | 243 | 3.2 | 3.2 | 0.00 | 0.00 | 0.00 | 80 | 1010.2 |
| 20260510163015 | 18 | 215 | 4.8 | 4.8 | 0.00 | 0.00 | 0.00 | 83 | 1010.1 |
| 20260510162510 | 18 | 225 | 1.6 | 1.6 | 0.00 | 0.00 | 0.00 | 82 | 1010.4 |
| 20260510162007 | 18 | 269 | 3.2 | 3.2 | 0.00 | 0.00 | 0.00 | 84 | 1010.5 |
| 20260510161503 | 18 | 250 | 8.0 | 9.7 | 0.00 | 0.00 | 0.00 | 80 | 1010.3 |
| 20260510160959 | 18 | 149 | 1.6 | 1.6 | 0.00 | 0.00 | 0.00 | 82 | 1010.5 |
| 20260510160451 | 17 | 149 | 0.0 | 1.6 | 0.00 | 0.00 | 0.00 | 86 | 1010.3 |
| 20260510155948 | 16 | 216 | 3.2 | 3.2 | 0.00 | 0.00 | 0.00 | 87 | 1010.3 |
| 20260510155441 | 17 | 299 | 6.4 | 8.0 | 0.00 | 0.00 | 0.00 | 83 | 1010.6 |
| 20260510154937 | 16 | 215 | 1.6 | 1.6 | 0.00 | 0.00 | 0.00 | 87 | 1010.8 |
| 20260510154433 | 17 | 197 | 1.6 | 3.2 | 0.00 | 0.00 | 0.00 | 84 | 1010.4 |
| 20260510153932 | 17 | 198 | 1.6 | 3.2 | 0.00 | 0.00 | 0.00 | 88 | 1010.5 |
| 20260510153429 | 17 | 20 | 1.6 | 3.2 | 0.00 | 0.00 | 0.00 | 89 | 1010.6 |
| 20260510152926 | 17 | 243 | 4.8 | 4.8 | 0.00 | 0.00 | 0.00 | 86 | 1010.4 |
| 20260510152423 | 16 | 57 | 0.0 | 0.0 | 0.00 | 0.00 | 0.00 | 89 | 1010.5 |
| 20260510151919 | 16 | 267 | 8.0 | 9.7 | 0.00 | 0.00 | 0.00 | 87 | 1010.2 |
| 20260510151417 | 16 | 244 | 4.8 | 8.0 | 0.00 | 0.00 | 0.00 | 87 | 1010.6 |
| 20260510150913 | 16 | 58 | 0.0 | 0.0 | 0.00 | 0.00 | 0.00 | 92 | 1010.7 |
| 20260510150409 | 15 | 11 | 0.0 | 0.0 | 0.00 | 0.00 | 0.00 | 92 | 1010.6 |
| 20260510145905 | 15 | 40 | 0.0 | 0.0 | 0.00 | 0.00 | 0.00 | 93 | 1010.7 |
| 20260510145401 | 15 | 99 | 0.0 | 1.6 | 0.00 | 0.00 | 0.00 | 92 | 1010.7 |
| 20260510144858 | 15 | 310 | 6.4 | 8.0 | 0.00 | 0.00 | 0.00 | 94 | 1010.6 |
| 20260510144355 | 14 | 233 | 3.2 | 3.2 | 0.00 | 0.00 | 0.00 | 97 | 1010.7 |
| 20260510143849 | 13 | 268 | 3.2 | 3.2 | 0.00 | 0.00 | 0.00 | 97 | 1010.7 |
| 20260510143346 | 13 | 285 | 1.6 | 1.6 | 0.00 | 0.00 | 0.00 | 99 | 1010.7 |
| 20260510142843 | 13 | 25 | 0.0 | 1.6 | 0.00 | 0.00 | 0.00 | 99 | 1010.7 |
| 20260510142339 | 13 | 84 | 0.0 | 0.0 | 0.00 | 0.00 | 0.00 | 99 | 1010.5 |
| 20260510141836 | 13 | 102 | 1.6 | 1.6 | 0.00 | 0.00 | 0.00 | 99 | 1010.5 |
| 20260510141333 | 13 | 50 | 0.0 | 0.0 | 0.00 | 0.00 | 0.00 | 99 | 1010.4 |
| 20260510140831 | 13 | 258 | 1.6 | 3.2 | 0.00 | 0.00 | 0.00 | 99 | 1010.5 |
| 20260510140326 | 12 | 80 | 0.0 | 0.0 | 0.00 | 0.00 | 0.00 | 99 | 1010.4 |
| 20260510135819 | 12 | 52 | 0.0 | 0.0 | 0.00 | 0.00 | 0.00 | 99 | 1010.5 |
| 20260510135315 | 12 | 201 | 1.6 | 1.6 | 0.00 | 0.00 | 0.00 | 99 | 1010.6 |
| 20260510134813 | 12 | 67 | 0.0 | 0.0 | 0.00 | 0.00 | 0.00 | 99 | 1010.3 |
| 20260510134310 | 12 | 118 | 0.0 | 1.6 | 0.00 | 0.00 | 0.00 | 99 | 1010.4 |
| 20260510133806 | 11 | 76 | 0.0 | 0.0 | 0.00 | 0.00 | 0.00 | 99 | 1010.5 |
| 20260510133302 | 11 | 355 | 0.0 | 0.0 | 0.00 | 0.00 | 0.00 | 99 | 1010.4 |
| 20260510132758 | 11 | 62 | 0.0 | 0.0 | 0.00 | 0.00 | 0.00 | 99 | 1010.5 |
| 20260510132256 | 11 | 75 | 0.0 | 0.0 | 0.00 | 0.00 | 0.00 | 99 | 1010.6 |
| 20260510131753 | 11 | 90 | 0.0 | 0.0 | 0.00 | 0.00 | 0.00 | 99 | 1010.4 |
| 20260510131251 | 11 | 317 | 0.0 | 0.0 | 0.00 | 0.00 | 0.00 | 99 | 1010.4 |
| 20260510130747 | 11 | 29 | 0.0 | 0.0 | 0.00 | 0.00 | 0.00 | 99 | 1010.4 |
| 20260510130244 | 11 | 29 | 0.0 | 0.0 | 0.00 | 0.00 | 0.00 | 99 | 1010.2 |
| 20260510125740 | 11 | 61 | 0.0 | 0.0 | 0.00 | 0.00 | 0.00 | 99 | 1010.3 |
| 20260510125236 | 11 | 95 | 0.0 | 0.0 | 0.00 | 0.00 | 0.00 | 99 | 1010.2 |
| 20260510124733 | 11 | 309 | 0.0 | 1.6 | 0.00 | 0.00 | 0.00 | 99 | 1010.2 |
| 20260510124231 | 11 | 82 | 0.0 | 0.0 | 0.00 | 0.00 | 0.00 | 99 | 1010.2 |
| 20260510123726 | 11 | 222 | 0.0 | 0.0 | 0.00 | 0.00 | 0.00 | 99 | 1010.2 |
| 20260510123222 | 11 | 221 | 0.0 | 0.0 | 0.00 | 0.00 | 0.00 | 99 | 1010.2 |
| 20260510122718 | 11 | 221 | 0.0 | 0.0 | 0.00 | 0.00 | 0.00 | 99 | 1009.9 |
| 20260510122215 | 11 | 48 | 0.0 | 0.0 | 0.00 | 0.00 | 0.00 | 99 | 1009.9 |
| 20260510121711 | 11 | 40 | 0.0 | 0.0 | 0.00 | 0.00 | 0.00 | 99 | 1009.7 |
| 20260510121209 | 11 | 65 | 0.0 | 0.0 | 0.00 | 0.00 | 0.00 | 99 | 1009.7 |
| 20260510120705 | 11 | 67 | 0.0 | 0.0 | 0.00 | 0.00 | 0.00 | 99 | 1009.7 |
| 20260510120202 | 10 | 259 | 0.0 | 1.6 | 0.00 | 0.00 | 0.00 | 99 | 1009.8 |
| 20260510115657 | 10 | 43 | 0.0 | 0.0 | 0.00 | 0.00 | 0.00 | 99 | 1009.8 |
| 20260510115156 | 10 | 181 | 0.0 | 1.6 | 0.00 | 0.00 | 0.00 | 99 | 1009.6 |
| 20260510114646 | 10 | 60 | 0.0 | 0.0 | 0.00 | 0.00 | 0.00 | 99 | 1009.5 |
| 20260510114142 | 10 | 68 | 0.0 | 0.0 | 0.00 | 0.00 | 0.00 | 99 | 1009.5 |
| 20260510113637 | 10 | 40 | 0.0 | 0.0 | 0.00 | 0.00 | 0.00 | 99 | 1009.5 |
| 20260510113135 | 10 | 22 | 0.0 | 0.0 | 0.00 | 0.00 | 0.00 | 99 | 1009.5 |
| 20260510112631 | 10 | 42 | 0.0 | 0.0 | 0.00 | 0.00 | 0.00 | 99 | 1009.4 |
| 20260510112128 | 10 | 336 | 0.0 | 0.0 | 0.00 | 0.00 | 0.00 | 99 | 1009.4 |
| 20260510111624 | 10 | 351 | 0.0 | 1.6 | 0.00 | 0.00 | 0.00 | 99 | 1009.2 |
| 20260510111120 | 10 | 48 | 0.0 | 0.0 | 0.00 | 0.00 | 0.00 | 99 | 1009.2 |
| 20260510110616 | 10 | 68 | 0.0 | 0.0 | 0.00 | 0.00 | 0.00 | 99 | 1009.0 |
| 20260510110113 | 10 | 314 | 0.0 | 1.6 | 0.00 | 0.00 | 0.00 | 99 | 1009.1 |
| 20260510105609 | 10 | 61 | 0.0 | 0.0 | 0.00 | 0.00 | 0.00 | 99 | 1009.2 |
| 20260510105103 | 10 | 132 | 0.0 | 0.0 | 0.00 | 0.00 | 0.00 | 99 | 1008.9 |
| 20260510104601 | 10 | 76 | 0.0 | 0.0 | 0.00 | 0.00 | 0.00 | 99 | 1009.0 |
| 20260510104057 | 10 | 59 | 0.0 | 0.0 | 0.00 | 0.00 | 0.00 | 99 | 1008.9 |
| 20260510103554 | 10 | 91 | 0.0 | 0.0 | 0.00 | 0.00 | 0.00 | 99 | 1009.2 |
| 20260510103050 | 10 | 67 | 0.0 | 0.0 | 0.00 | 0.00 | 0.00 | 99 | 1009.1 |
| 20260510102545 | 10 | 109 | 0.0 | 0.0 | 0.00 | 0.00 | 0.00 | 99 | 1008.9 |
| 20260510102042 | 10 | 83 | 0.0 | 0.0 | 0.00 | 0.00 | 0.00 | 99 | 1008.8 |
| 20260510101540 | 10 | 160 | 1.6 | 1.6 | 0.00 | 0.00 | 0.00 | 99 | 1008.9 |
| 20260510101038 | 10 | 114 | 0.0 | 0.0 | 0.00 | 0.00 | 0.00 | 99 | 1008.8 |
| 20260510100534 | 10 | 45 | 0.0 | 0.0 | 0.00 | 0.00 | 0.00 | 99 | 1008.7 |
| 20260510100032 | 10 | 67 | 0.0 | 0.0 | 0.00 | 0.00 | 0.00 | 99 | 1008.7 |
| 20260510095527 | 10 | 172 | 0.0 | 0.0 | 0.00 | 0.00 | 0.00 | 99 | 1008.9 |
| 20260510095026 | 10 | 173 | 1.6 | 1.6 | 0.00 | 0.00 | 0.00 | 99 | 1009.0 |
| 20260510094521 | 10 | 83 | 0.0 | 0.0 | 0.00 | 0.00 | 0.00 | 99 | 1008.8 |
| 20260510094017 | 10 | 87 | 0.0 | 0.0 | 0.00 | 0.00 | 0.00 | 99 | 1008.8 |
| 20260510093513 | 10 | 180 | 0.0 | 0.0 | 0.00 | 0.00 | 0.00 | 99 | 1008.7 |
| 20260510093010 | 10 | 178 | 0.0 | 0.0 | 0.00 | 0.00 | 0.00 | 99 | 1009.0 |
| 20260510092507 | 10 | 181 | 0.0 | 0.0 | 0.00 | 0.00 | 0.00 | 99 | 1008.8 |
| 20260510092006 | 10 | 180 | 0.0 | 0.0 | 0.00 | 0.00 | 0.00 | 99 | 1009.0 |
| 20260510091504 | 10 | 181 | 0.0 | 0.0 | 0.00 | 0.00 | 0.00 | 99 | 1009.1 |
| 20260510090959 | 10 | 181 | 0.0 | 0.0 | 0.00 | 0.00 | 0.00 | 99 | 1009.4 |
| 20260510090457 | 10 | 181 | 0.0 | 0.0 | 0.00 | 0.00 | 0.00 | 99 | 1009.4 |
| 20260510085952 | 10 | 30 | 0.0 | 0.0 | 0.00 | 0.00 | 0.00 | 99 | 1009.2 |
| 20260510085447 | 10 | 30 | 0.0 | 0.0 | 0.00 | 0.00 | 0.00 | 99 | 1009.2 |
| 20260510084943 | 10 | 30 | 0.0 | 0.0 | 0.00 | 0.00 | 0.00 | 99 | 1009.1 |
| 20260510084440 | 10 | 30 | 0.0 | 0.0 | 0.00 | 0.00 | 0.00 | 99 | 1009.1 |
| 20260510083937 | 10 | 30 | 0.0 | 0.0 | 0.00 | 0.00 | 0.00 | 99 | 1009.4 |
| 20260510083434 | 10 | 28 | 0.0 | 0.0 | 0.00 | 0.00 | 0.00 | 99 | 1009.3 |
| 20260510082928 | 10 | 29 | 0.0 | 0.0 | 0.00 | 0.00 | 0.00 | 99 | 1009.4 |
| 20260510082427 | 10 | 29 | 0.0 | 0.0 | 0.00 | 0.00 | 0.00 | 99 | 1009.1 |
| 20260510081926 | 10 | 26 | 0.0 | 0.0 | 0.00 | 0.00 | 0.00 | 99 | 1009.2 |
| 20260510081422 | 10 | 26 | 0.0 | 0.0 | 0.00 | 0.00 | 0.00 | 99 | 1009.4 |
| 20260510080918 | 10 | 26 | 0.0 | 0.0 | 0.00 | 0.00 | 0.00 | 99 | 1009.2 |
| 20260510080417 | 10 | 13 | 0.0 | 0.0 | 0.00 | 0.00 | 0.00 | 99 | 1009.2 |
| 20260510075914 | 10 | 13 | 0.0 | 0.0 | 0.00 | 0.00 | 0.00 | 99 | 1009.2 |
| 20260510075412 | 10 | 16 | 0.0 | 0.0 | 0.00 | 0.00 | 0.00 | 99 | 1009.2 |
| 20260510074909 | 10 | 345 | 3.2 | 3.2 | 0.00 | 0.00 | 0.00 | 99 | 1009.2 |
| 20260510074406 | 10 | 22 | 0.0 | 0.0 | 0.00 | 0.00 | 0.00 | 99 | 1009.0 |
| 20260510073902 | 10 | 8 | 1.6 | 1.6 | 0.00 | 0.00 | 0.00 | 99 | 1008.9 |
| 20260510073357 | 10 | 33 | 0.0 | 0.0 | 0.00 | 0.00 | 0.00 | 99 | 1008.4 |
| 20260510072854 | 10 | 33 | 0.0 | 0.0 | 0.00 | 0.00 | 0.00 | 99 | 1008.5 |
| 20260510072351 | 10 | 28 | 0.0 | 0.0 | 0.00 | 0.00 | 0.00 | 99 | 1008.7 |
| 20260510071847 | 10 | 61 | 0.0 | 0.0 | 0.00 | 0.00 | 0.00 | 99 | 1008.6 |
| 20260510071343 | 10 | 61 | 0.0 | 0.0 | 0.00 | 0.00 | 0.00 | 99 | 1008.3 |
| 20260510070842 | 10 | 66 | 0.0 | 0.0 | 0.00 | 0.00 | 0.00 | 99 | 1008.6 |
| 20260510070339 | 10 | 67 | 0.0 | 0.0 | 0.00 | 0.00 | 0.00 | 99 | 1008.6 |
| 20260510065833 | 10 | 67 | 0.0 | 0.0 | 0.00 | 0.00 | 0.00 | 99 | 1008.6 |
| 20260510065330 | 10 | 67 | 0.0 | 0.0 | 0.00 | 0.00 | 0.00 | 99 | 1008.8 |
| 20260510064827 | 10 | 67 | 0.0 | 0.0 | 0.00 | 0.00 | 0.00 | 99 | 1008.8 |
| 20260510064325 | 10 | 68 | 0.0 | 0.0 | 0.00 | 0.00 | 0.00 | 99 | 1009.0 |
| 20260510063821 | 10 | 68 | 0.0 | 0.0 | 0.00 | 0.00 | 0.00 | 99 | 1008.9 |
| 20260510063317 | 10 | 68 | 0.0 | 0.0 | 0.00 | 0.00 | 0.00 | 99 | 1008.9 |
| 20260510062814 | 10 | 247 | 0.0 | 1.6 | 0.00 | 0.00 | 0.00 | 99 | 1009.0 |
| 20260510062310 | 10 | 16 | 0.0 | 0.0 | 0.00 | 0.00 | 0.00 | 99 | 1008.9 |
| 20260510061806 | 10 | 37 | 0.0 | 0.0 | 0.00 | 0.00 | 0.00 | 99 | 1008.8 |
| 20260510061303 | 10 | 33 | 0.0 | 0.0 | 0.00 | 0.00 | 0.00 | 99 | 1008.8 |
| 20260510060758 | 10 | 359 | 0.0 | 0.0 | 0.00 | 0.00 | 0.00 | 99 | 1009.0 |
| 20260510060256 | 10 | 282 | 1.6 | 1.6 | 0.00 | 0.00 | 0.00 | 99 | 1008.8 |
| 20260510055752 | 10 | 3 | 0.0 | 0.0 | 0.00 | 0.00 | 0.00 | 99 | 1008.7 |
| 20260510055251 | 10 | 56 | 0.0 | 0.0 | 0.00 | 0.00 | 0.00 | 99 | 1008.6 |
| 20260510054750 | 10 | 66 | 0.0 | 0.0 | 0.00 | 0.00 | 0.00 | 99 | 1008.2 |
| 20260510054247 | 10 | 66 | 0.0 | 0.0 | 0.00 | 0.00 | 0.00 | 99 | 1008.4 |
| 20260510053746 | 10 | 65 | 0.0 | 0.0 | 0.00 | 0.00 | 0.00 | 99 | 1008.6 |
| 20260510053242 | 10 | 65 | 0.0 | 0.0 | 0.00 | 0.00 | 0.00 | 99 | 1008.3 |
| 20260510052738 | 10 | 95 | 0.0 | 0.0 | 0.00 | 0.00 | 0.00 | 99 | 1008.5 |
| 20260510052234 | 10 | 57 | 0.0 | 0.0 | 0.00 | 0.00 | 0.00 | 99 | 1008.4 |
| 20260510051730 | 10 | 56 | 0.0 | 0.0 | 0.00 | 0.00 | 0.00 | 99 | 1008.5 |
| 20260510051227 | 10 | 71 | 0.0 | 0.0 | 0.00 | 0.00 | 0.00 | 99 | 1008.6 |
| 20260510050724 | 10 | 51 | 0.0 | 0.0 | 0.00 | 0.00 | 0.00 | 99 | 1008.7 |
| 20260510050221 | 10 | 44 | 0.0 | 0.0 | 0.00 | 0.00 | 0.00 | 99 | 1008.8 |
| 20260510045718 | 10 | 349 | 0.0 | 0.0 | 0.00 | 0.00 | 0.00 | 99 | 1008.8 |
| 20260510045215 | 10 | 65 | 0.0 | 0.0 | 0.00 | 0.00 | 0.00 | 99 | 1008.8 |
| 20260510044711 | 10 | 51 | 0.0 | 0.0 | 0.00 | 0.00 | 0.00 | 99 | 1008.8 |
| 20260510044210 | 10 | 69 | 0.0 | 0.0 | 0.00 | 0.00 | 0.00 | 99 | 1008.6 |
| 20260510043704 | 10 | 51 | 0.0 | 0.0 | 0.00 | 0.00 | 0.00 | 99 | 1008.4 |
| 20260510043201 | 10 | 51 | 0.0 | 0.0 | 0.00 | 0.00 | 0.00 | 99 | 1008.6 |
| 20260510042658 | 10 | 51 | 0.0 | 0.0 | 0.00 | 0.00 | 0.00 | 99 | 1008.6 |
| 20260510042154 | 10 | 46 | 0.0 | 0.0 | 0.00 | 0.00 | 0.00 | 99 | 1008.6 |
| 20260510041652 | 10 | 45 | 0.0 | 0.0 | 0.00 | 0.00 | 0.00 | 99 | 1008.7 |
| 20260510041149 | 10 | 40 | 0.0 | 0.0 | 0.00 | 0.00 | 0.00 | 99 | 1008.6 |
| 20260510040646 | 10 | 333 | 0.0 | 0.0 | 0.00 | 0.00 | 0.00 | 99 | 1008.6 |
| 20260510040142 | 10 | 15 | 0.0 | 0.0 | 0.00 | 1.14 | 1.14 | 99 | 1008.5 |
| 20260510035638 | 10 | 50 | 0.0 | 0.0 | 0.00 | 1.14 | 1.14 | 99 | 1008.2 |
| 20260510035133 | 10 | 43 | 0.0 | 0.0 | 0.00 | 1.14 | 1.14 | 99 | 1008.3 |
| 20260510034630 | 10 | 50 | 0.0 | 0.0 | 0.00 | 1.14 | 1.14 | 99 | 1008.3 |
| 20260510034127 | 10 | 7 | 0.0 | 0.0 | 0.00 | 1.14 | 1.14 | 99 | 1008.4 |
| 20260510033623 | 10 | 37 | 0.0 | 0.0 | 0.00 | 1.14 | 1.14 | 99 | 1008.4 |
| 20260510033121 | 10 | 40 | 0.0 | 0.0 | 0.00 | 1.14 | 1.14 | 99 | 1008.3 |
| 20260510032618 | 10 | 37 | 0.0 | 0.0 | 0.00 | 1.14 | 1.14 | 99 | 1008.1 |
| 20260510032113 | 10 | 50 | 0.0 | 0.0 | 0.00 | 1.14 | 1.14 | 99 | 1008.4 |
| 20260510031608 | 10 | 50 | 0.0 | 0.0 | 0.00 | 1.14 | 1.14 | 99 | 1008.4 |
| 20260510031105 | 10 | 51 | 0.0 | 0.0 | 0.00 | 1.14 | 1.14 | 99 | 1008.5 |
| 20260510030559 | 10 | 40 | 0.0 | 0.0 | 0.00 | 1.14 | 1.14 | 99 | 1008.7 |
| 20260510030052 | 10 | 18 | 0.0 | 0.0 | 0.00 | 1.14 | 1.14 | 99 | 1008.7 |
| 20260510025549 | 10 | 31 | 0.0 | 0.0 | 0.00 | 1.14 | 1.14 | 99 | 1008.7 |
| 20260510025046 | 10 | 358 | 0.0 | 0.0 | 0.00 | 1.14 | 1.14 | 99 | 1008.7 |
| 20260510024542 | 10 | 24 | 0.0 | 0.0 | 0.00 | 1.14 | 1.14 | 99 | 1008.5 |
| 20260510024038 | 10 | 42 | 0.0 | 0.0 | 0.00 | 1.14 | 1.14 | 99 | 1008.6 |
| 20260510023535 | 10 | 37 | 0.0 | 0.0 | 0.00 | 1.14 | 1.14 | 99 | 1008.5 |
| 20260510023032 | 11 | 8 | 0.0 | 0.0 | 0.00 | 1.14 | 1.14 | 99 | 1008.5 |
| 20260510022532 | 11 | 10 | 0.0 | 0.0 | 0.00 | 1.14 | 1.14 | 99 | 1008.7 |
| 20260510022026 | 11 | 9 | 0.0 | 0.0 | 0.00 | 1.14 | 1.14 | 99 | 1008.6 |
| 20260510021523 | 11 | 9 | 0.0 | 0.0 | 0.00 | 1.14 | 1.14 | 99 | 1008.5 |
| 20260510021020 | 11 | 356 | 0.0 | 0.0 | 0.00 | 1.14 | 1.14 | 99 | 1008.8 |
| 20260510020515 | 11 | 30 | 0.0 | 0.0 | 0.00 | 1.14 | 1.14 | 99 | 1008.4 |
| 20260510020011 | 11 | 30 | 0.0 | 0.0 | 0.00 | 1.14 | 1.14 | 99 | 1008.6 |
| 20260510015507 | 11 | 43 | 0.0 | 0.0 | 0.00 | 1.14 | 1.14 | 99 | 1008.5 |
| 20260510015003 | 11 | 43 | 0.0 | 0.0 | 0.00 | 1.14 | 1.14 | 99 | 1008.4 |
| 20260510014500 | 10 | 43 | 0.0 | 0.0 | 0.00 | 1.14 | 1.14 | 99 | 1008.4 |
| 20260510013956 | 10 | 97 | 0.0 | 0.0 | 0.00 | 1.14 | 1.14 | 99 | 1008.4 |
| 20260510013451 | 10 | 60 | 0.0 | 0.0 | 0.00 | 1.14 | 1.14 | 99 | 1008.5 |
| 20260510012947 | 10 | 57 | 0.0 | 0.0 | 0.00 | 1.14 | 1.14 | 99 | 1008.1 |
| 20260510012442 | 10 | 71 | 0.0 | 0.0 | 0.00 | 1.14 | 1.14 | 99 | 1008.1 |
| 20260510011937 | 10 | 62 | 0.0 | 0.0 | 0.00 | 1.14 | 1.14 | 99 | 1008.1 |
| 20260510011432 | 10 | 62 | 0.0 | 0.0 | 0.00 | 1.14 | 1.14 | 99 | 1008.1 |
| 20260510010928 | 10 | 61 | 0.0 | 0.0 | 0.00 | 1.14 | 1.14 | 99 | 1007.9 |
| 20260510010426 | 10 | 57 | 0.0 | 0.0 | 0.00 | 1.14 | 1.14 | 99 | 1007.9 |
| 20260510005922 | 10 | 55 | 0.0 | 0.0 | 0.00 | 1.14 | 1.14 | 99 | 1007.8 |
| 20260510005418 | 10 | 70 | 0.0 | 0.0 | 0.00 | 1.14 | 1.14 | 99 | 1007.6 |
| 20260510004916 | 10 | 67 | 0.0 | 0.0 | 0.00 | 1.14 | 1.14 | 99 | 1007.6 |
| 20260510004413 | 10 | 87 | 0.0 | 0.0 | 0.00 | 1.14 | 1.14 | 99 | 1007.7 |
| 20260510003911 | 10 | 100 | 0.0 | 0.0 | 0.00 | 1.14 | 1.14 | 99 | 1007.5 |
| 20260510003408 | 10 | 81 | 0.0 | 0.0 | 0.00 | 1.14 | 1.14 | 99 | 1007.6 |
| 20260510002907 | 10 | 53 | 0.0 | 0.0 | 0.00 | 1.14 | 1.14 | 99 | 1007.6 |
| 20260510002404 | 10 | 72 | 0.0 | 0.0 | 0.00 | 1.14 | 1.14 | 99 | 1007.5 |
| 20260510001900 | 10 | 103 | 0.0 | 0.0 | 0.00 | 1.14 | 1.14 | 99 | 1007.6 |
| 20260510001358 | 10 | 98 | 0.0 | 0.0 | 0.00 | 1.14 | 1.14 | 99 | 1007.7 |
| 20260510000855 | 10 | 75 | 0.0 | 0.0 | 0.00 | 1.14 | 1.14 | 99 | 1007.5 |
| 20260510000351 | 11 | 49 | 0.0 | 0.0 | 0.00 | 1.14 | 1.14 | 99 | 1007.5 |
| 20260509235848 | 11 | 48 | 0.0 | 0.0 | 0.00 | 1.14 | 1.14 | 99 | 1007.3 |
| 20260509235345 | 11 | 42 | 0.0 | 0.0 | 0.00 | 1.14 | 1.14 | 99 | 1007.6 |
| 20260509234841 | 11 | 73 | 0.0 | 0.0 | 0.00 | 1.14 | 1.14 | 99 | 1007.5 |
| 20260509234338 | 11 | 68 | 0.0 | 0.0 | 0.00 | 1.14 | 1.14 | 99 | 1007.5 |
| 20260509233836 | 11 | 68 | 0.0 | 0.0 | 0.00 | 1.14 | 1.14 | 99 | 1007.5 |
| 20260509233333 | 11 | 67 | 0.0 | 0.0 | 0.00 | 1.14 | 1.14 | 99 | 1007.4 |
| 20260509232829 | 11 | 71 | 0.0 | 0.0 | 0.00 | 1.14 | 1.14 | 99 | 1007.6 |
| 20260509232327 | 11 | 67 | 0.0 | 0.0 | 0.00 | 1.14 | 1.14 | 99 | 1007.4 |
| 20260509231823 | 11 | 79 | 0.0 | 0.0 | 0.00 | 1.14 | 1.14 | 99 | 1007.6 |
| 20260509231320 | 11 | 87 | 0.0 | 0.0 | 0.00 | 1.14 | 1.14 | 99 | 1007.7 |
| 20260509230818 | 11 | 33 | 0.0 | 1.6 | 0.00 | 1.14 | 1.14 | 99 | 1007.8 |
| 20260509230314 | 11 | 66 | 0.0 | 0.0 | 0.00 | 1.14 | 1.14 | 99 | 1007.4 |
| 20260509225809 | 11 | 74 | 0.0 | 0.0 | 0.00 | 1.14 | 1.14 | 99 | 1007.7 |
| 20260509225307 | 11 | 66 | 0.0 | 0.0 | 0.00 | 1.14 | 1.14 | 99 | 1007.6 |
| 20260509224802 | 11 | 57 | 0.0 | 0.0 | 0.00 | 1.14 | 1.14 | 99 | 1008.0 |
| 20260509224259 | 11 | 69 | 0.0 | 0.0 | 0.00 | 1.14 | 1.14 | 99 | 1007.8 |
| 20260509223755 | 11 | 74 | 0.0 | 0.0 | 0.00 | 1.14 | 1.14 | 99 | 1008.0 |
| 20260509223253 | 11 | 69 | 0.0 | 0.0 | 0.00 | 1.14 | 1.14 | 99 | 1007.9 |
| 20260509222749 | 11 | 72 | 0.0 | 0.0 | 0.00 | 1.14 | 1.14 | 99 | 1007.7 |
| 20260509222245 | 11 | 103 | 0.0 | 1.6 | 0.00 | 1.14 | 1.14 | 99 | 1007.7 |
| 20260509221740 | 11 | 63 | 0.0 | 0.0 | 0.13 | 1.14 | 1.14 | 99 | 1007.8 |
| 20260509221237 | 11 | 57 | 0.0 | 0.0 | 0.61 | 1.14 | 1.14 | 99 | 1008.0 |
| 20260509220733 | 11 | 58 | 0.0 | 0.0 | 0.66 | 1.12 | 1.12 | 99 | 1008.1 |
| 20260509220230 | 11 | 66 | 0.0 | 0.0 | 0.48 | 1.07 | 1.07 | 99 | 1008.3 |
| 20260509215725 | 11 | 146 | 0.0 | 1.6 | 0.43 | 1.02 | 1.02 | 99 | 1008.2 |
| 20260509215222 | 11 | 61 | 0.0 | 0.0 | 0.48 | 0.99 | 0.99 | 99 | 1008.1 |